Regional Weather Roundup
Issued by NWS Green Bay, WI

Home | Current Version | Previous Version | Text Only | Print | Product List | Glossary On
Versions: 1 2 3 4 5 6 7 8 9 10 11 12 13 14 15 16 17 18 19 20 21 22 23 24 25 26 27 28 29 30 31 32 33 34 35 36 37 38 39 40 41 42 43 44 45 46 47 48 49 50
000
ASUS43 KGRB 291211
RWRGRB

NORTH-CENTRAL AND NORTHEAST WISCONSIN REGIONAL WEATHER ROUNDUP
NATIONAL WEATHER SERVICE GREEN BAY WI
700 AM CDT SAT APR 29 2017

WIZ005-009-010>012-018-019-291300-
NORTH CENTRAL WISCONSIN

CITY           SKY/WX    TMP DP  RH WIND       PRES   REMARKS
IRONWOOD       CLOUDY    27  26  96 CALM      30.25R
MANITOWISH WTR MOSUNNY   28  27  99 CALM      30.23R
ARBOR VITAE    MOSUNNY   32  28  84 CALM      30.27R
EAGLE RIVER    SUNNY     31  24  73 CALM      30.28R
LAND O LAKES   CLOUDY    31  24  76 CALM      30.25R
RHINELANDER    SUNNY     32  26  78 CALM      30.28R
PHILLIPS       PTSUNNY   30  26  88 SE5       30.28R
ANTIGO         SUNNY     32  25  74 NE3       30.27R
TOMAHAWK       SUNNY     30  26  84 CALM      30.28R
MERRILL        SUNNY     31  28  88 CALM      30.27R
$$

WIZ013-073-291300-
NORTHEAST WISCONSIN

CITY           SKY/WX    TMP DP  RH WIND       PRES   REMARKS
IRON MOUNTAIN  MOSUNNY   30  25  81 N7        30.25R
MARINETTE      SUNNY     33  27  78 N6        30.28R
OCONTO         SUNNY     33  28  80 N7        30.27R
$$

WIZ017-030-035>037-045-291300-
CENTRAL WISCONSIN

CITY           SKY/WX    TMP DP  RH WIND       PRES   REMARKS
MEDFORD        SUNNY     32  26  80 NE3       30.26S
WAUSAU         SUNNY     33  27  78 CALM      30.26R
MOSINEE        MOSUNNY   32  28  86 N3        30.28R
MARSHFIELD     SUNNY     34  27  75 NE7       30.26R
WISC RAPIDS    SUNNY     36  28  73 NE7       30.27R
STEVENS POINT  CLOUDY    31  27  83 N6        30.28R
WAUPACA        SUNNY     37  29  73 N6        30.26R
SHAWANO        SUNNY     36  29  75 N9        30.27R
CLINTONVILLE   SUNNY     34  28  80 N6        30.26S
WAUTOMA        CLOUDY    36  27  69 NE9       30.27R
$$

WIZ038-039-048-051-291300-
FOX VALLEY

CITY           SKY/WX    TMP DP  RH WIND       PRES   REMARKS
NWS GREEN BAY  SUNNY     37  29  72 N14       30.23F
APPLETON       MOSUNNY   34  27  75 N8        30.21S
OSHKOSH        MOSUNNY   38  28  67 NE14      30.23R
FOND DU LAC    MOSUNNY   38  24  57 NE17G25   30.22R
$$

WIZ022-050-052-291300-
EAST CENTRAL WISCONSIN

CITY           SKY/WX    TMP DP  RH WIND       PRES   REMARKS
EPHRAIM        FAIR      36  29  76 NE8       30.24S
WASHINGTON ISL FAIR      35  27  72 N10       30.24F
STURGEON BAY   SUNNY     37  28  70 N9        30.26R
MANITOWOC      CLOUDY    37  26  64 N7        30.23R
SHEBOYGAN      MOSUNNY   36  30  79 N12       30.20S
$$

LMZ563-521-522-541>543-291300-
LAKESHORE

STATION/POSITION TIME  TEMP    WIND        PRES    VSBY  WAVE
                       AIR SEA DIR/SP/G                  HT/PER
                 (UTC) (F)     (DEG/KT/KT) (MB)    (MI)  (FT/S)
SHEBOYGAN LKSHOR 1200   38      20/ 23/ 27 1023.3R
KEWAUNEE LKSHORE 1148   37     360/  8/ 11 1023.2F
NORTHPORT PIER   1140   37     350/ 10/ 13 1024.4F
N MID LAKE BUOY  1150   36 37  340/ 12/ 12 1025.4F         1/ 4
SISTER BAY LKSHO 1121   36      30/  9/ 11   N/A
CHAMBERS ISLAND  1140   38     330/ 11/ 12 1024.0F
MENOMINEE LKSHOR 1148   35     320/  7/  9 1024.0R
$$



USA.gov is the U.S. government's official web portal to all federal, state and local government web resources and services.